CZ-2C R/B, 58754

Orbit data source: Space-Track

CZ-2C R/B, 58754 is space debris in LEO originally from a launch on Tue, 09 Jan 2024 UTC launched from the Xichang Space Center, China (XSC). Debris objects in space refer to the collection of defunct objects orbiting the Earth. Examples of debris include non-operational satellites, rocket bodies, and fragments generated from explosions, collisions, or faulty payload assembly.

Not visible in the next 10 days
Identifier
58754, 2024-007B
Orbit
LEO
Country
Flag of CNCN / PRC
Related business
Manufacturer
CALT
Mission
Spacecraft
Bus & Motor
CZ-2 STAGE 2, Unknown motor
Mass
~3,800 kg wet, ~3,800 kg dry
Launch date (UTC)
2024-01-09 (2 years ago)
Launch vehicle
Unknown
Launch site
Xichang Space Center, China (XSC)
Object type
Payload
Rocket body
Debris
Shape & HBR
Cyl, 3.7 m
Radar Cross Section
23.715 m², Large (>1 m²)

Expand to show TLE details & history
Last TLE update: 2 days ago

TLE from 2 days ago
0 CZ-2C R/B
1 58754U 24007B   26171.42405250  .00014516  00000-0  28526-3 0  9994
2 58754  29.0091 278.5128 0062581  21.1698 339.1483 15.43497963136691
Epoch: 2026-06-20T10:10Z
TLE epoch observation values (Epoch: 2026-06-20T10:10:38.136Z)
Latitude
-0.00004°
Longitude
-142.78506°
Altitude
394.286 km
Speed
7.699 km/s
True Right ascension
18h 34m 03s
True Declination
0° 00' 00"
Sunlit
Object was in full shadow at epoch
Visualization orbit readout
Latitude
Unknown
Longitude
Unknown
Altitude
Unknown
Speed
Unknown
Apparent Right ascension
Unknown
Apparent Declination
Unknown
Sunlit
N/A
Visualization observer readout
Local Sidereal Time
21:24:52
Azimuth
Unknown
Elevation
Unknown
Doppler factor
Unknown
Orbital elements
Apogee altitude
482.653 km
Perigee altitude
397.316 km
Semi-major axis
6,818.122 km
Eccentricity
0.00626
Inclination
29.0091°
RAAN
278.5128°
Arg. of periapsis
21.1698°
True anomaly
338.89116°
Mean anomaly
339.1483°
Eccentric anomaly
339.01992°
Mean motion
3.85519 °/min
Orbital period
93.38 mins
BSTAR
0.00028526
Loading maneuver chart data...
Computing Atmospheric mass density...
Loading historical data...
Loading historical data...
Loading historical data...
Loading historical data...
Loading historical data...
Loading historical data...
Loading historical data...
Other satellites on launch #7 in the year 2024 (2024-01-09 UTC)

Documentation

Showing up to 5 results
|